Weather History for Socorro, NM

Change the Weather History Date:

Thursday, January 3, 2013

  Actual Average Record
Temperature  
Mean Temperature 27 °F -  
Max Temperature 36 °F 46 °F 55 °F (2014)
Min Temperature 18 °F 18 °F 18 °F (2011)
Degree Days  
Heating Degree Days 38    
Moisture  
Dew Point 15 °F    
Average Humidity 61    
Maximum Humidity 79    
Minimum Humidity 47    
Precipitation  
Precipitation 0.00 in - - ()
Sea Level Pressure  
Sea Level Pressure 30.28 in    
Wind  
Wind Speed 8 mph (NNW)    
Max Wind Speed 13 mph    
Max Gust Speed 20 mph    
Visibility 10 miles    
Events      
Averages and records for this station are not official NWS values.
T = Trace of Precipitation, MM = Missing Value Source: NWS Daily Summary

Daily Weather History Graph

Daily Weather History Graph

Search for Another Location

Airport:

Trip Planner

Search our weather history database for the weather conditions in past years. The results will help you decide how hot, cold, wet, or windy it might be!

Date:

Astronomy

Jan. 03, 2013 Rise Set
Actual Time 7:13 AM MST 5:11 PM MST
Civil Twilight 6:45 AM MST 5:38 PM MST
Nautical Twilight 6:14 AM MST 6:10 PM MST
Astronomical Twilight 5:44 AM MST 6:40 PM MST
Moon 11:30 PM MST (1/3) 10:44 AM MST (1/3)
Length of Visible Light 10h 52m
Length of Day
9h 57m
Waning Gibbous, 65% of the Moon is Illuminated
Jan 3
Waning Gibbous
Jan 4
Last Quarter
Jan 11
New
Jan 18
First Quarter
Jan 26
Full

Hourly Weather History & Observations

Time (MST) Temp. Windchill Dew Point Humidity Pressure Visibility Wind Dir Wind Speed Gust Speed Precip Events Conditions
12:15 AM 22.1 °F 13.7 °F 7.9 °F 54% 30.21 in 10.0 mi NNW 6.9 mph - N/A   Clear
12:35 AM 23.7 °F 14.0 °F 9.1 °F 54% 30.21 in 10.0 mi NNW 9.2 mph - N/A   Clear
12:55 AM 25.2 °F 15.7 °F 9.0 °F 50% 30.21 in 10.0 mi North 9.2 mph - N/A   Clear
1:15 AM 22.5 °F 13.2 °F 8.6 °F 55% 30.22 in 10.0 mi North 8.1 mph - N/A   Clear
1:35 AM 23.2 °F 13.3 °F 9.0 °F 55% 30.22 in 10.0 mi NNW 9.2 mph - N/A   Clear
1:55 AM 24.3 °F 13.3 °F 9.5 °F 53% 30.24 in 10.0 mi North 11.5 mph - N/A   Clear
2:15 AM 24.3 °F 13.3 °F 10.4 °F 56% 30.24 in 10.0 mi NNW 11.5 mph - N/A   Clear
2:35 AM 24.1 °F 13.1 °F 11.3 °F 58% 30.24 in 10.0 mi NNW 11.5 mph - N/A   Clear
2:55 AM 23.9 °F 14.2 °F 12.2 °F 61% 30.24 in 10.0 mi North 9.2 mph - N/A   Clear
3:15 AM 23.9 °F 14.2 °F 11.5 °F 59% 30.25 in 10.0 mi North 9.2 mph - N/A   Clear
3:35 AM 23.0 °F 13.9 °F 12.0 °F 63% 30.24 in 10.0 mi North 8.1 mph - N/A   Clear
3:55 AM 23.2 °F 12.6 °F 13.1 °F 65% 30.24 in 10.0 mi North 10.4 mph 16.1 mph N/A   Clear
4:15 AM 22.8 °F 12.2 °F 13.3 °F 67% 30.25 in 10.0 mi NNW 10.4 mph - N/A   Clear
4:35 AM 23.2 °F 14.1 °F 14.0 °F 68% 30.25 in 10.0 mi NNW 8.1 mph - N/A   Clear
4:55 AM 23.0 °F 11.7 °F 14.0 °F 68% 30.26 in 10.0 mi North 11.5 mph 16.1 mph N/A   Clear
5:15 AM 22.8 °F 12.2 °F 13.8 °F 68% 30.27 in 10.0 mi NNW 10.4 mph - N/A   Clear
5:35 AM 22.8 °F 12.9 °F 14.0 °F 69% 30.27 in 10.0 mi North 9.2 mph - N/A   Clear
5:55 AM 23.5 °F 13.7 °F 14.2 °F 67% 30.27 in 10.0 mi North 9.2 mph - N/A   Clear
6:15 AM 23.0 °F 11.1 °F 14.5 °F 70% 30.28 in 10.0 mi NNW 12.7 mph - N/A   Clear
6:35 AM 22.1 °F 12.0 °F 13.1 °F 68% 30.28 in 10.0 mi NNW 9.2 mph - N/A   Clear
6:55 AM 22.3 °F 13.0 °F 13.5 °F 69% 30.29 in 10.0 mi NNW 8.1 mph - N/A   Clear
7:15 AM 19.4 °F 10.4 °F 11.8 °F 72% 30.30 in 10.0 mi North 6.9 mph - N/A   Clear
7:35 AM 18.0 °F 8.7 °F 9.5 °F 70% 30.30 in 10.0 mi North 6.9 mph - N/A   Clear
7:55 AM 18.5 °F 8.4 °F 9.5 °F 68% 30.31 in 10.0 mi NNW 8.1 mph - N/A   Clear
8:15 AM 21.2 °F 11.7 °F 11.1 °F 65% 30.32 in 10.0 mi North 8.1 mph - N/A   Clear
8:35 AM 22.5 °F 12.4 °F 10.6 °F 60% 30.32 in 10.0 mi NNE 9.2 mph - N/A   Clear
8:55 AM 23.7 °F 13.3 °F 10.4 °F 57% 30.32 in 10.0 mi North 10.4 mph - N/A   Clear
9:15 AM 24.6 °F 15.1 °F 11.1 °F 57% 30.33 in 10.0 mi North 9.2 mph - N/A   Clear
9:35 AM 27.0 °F 16.7 °F 13.1 °F 56% 30.34 in 10.0 mi North 11.5 mph - N/A   Mostly Cloudy
9:55 AM 28.9 °F 19.8 °F 14.0 °F 54% 30.34 in 10.0 mi North 10.4 mph - N/A   Overcast
10:15 AM 29.1 °F 20.0 °F 14.0 °F 53% 30.34 in 10.0 mi North 10.4 mph 16.1 mph N/A   Overcast
10:35 AM 29.3 °F 20.2 °F 14.0 °F 53% 30.34 in 10.0 mi North 10.4 mph - N/A   Overcast
10:55 AM 30.2 °F 21.9 °F 14.0 °F 51% 30.34 in 10.0 mi North 9.2 mph - N/A   Overcast
11:15 AM 30.6 °F 22.4 °F 14.0 °F 50% 30.33 in 10.0 mi North 9.2 mph - N/A   Overcast
11:35 AM 31.1 °F 21.4 °F 14.0 °F 49% 30.32 in 10.0 mi NNW 12.7 mph - N/A   Overcast
11:55 AM 31.5 °F 22.3 °F 14.4 °F 49% 30.31 in 10.0 mi NNW 11.5 mph 16.1 mph N/A   Overcast
12:15 PM 32.4 °F 24.0 °F 14.5 °F 48% 30.30 in 10.0 mi NNW 10.4 mph - N/A   Overcast
12:55 PM 32.7 °F 24.5 °F 14.9 °F 48% 30.28 in 10.0 mi NNW 10.4 mph 16.1 mph N/A   Overcast
1:15 PM 33.8 °F 27.0 °F 15.4 °F 47% 30.27 in 10.0 mi NNW 8.1 mph - N/A   Overcast
1:35 PM 33.6 °F 26.8 °F 15.8 °F 48% 30.27 in 10.0 mi NNW 8.1 mph - N/A   Overcast
1:55 PM 33.6 °F 26.2 °F 17.1 °F 51% 30.27 in 10.0 mi NNE 9.2 mph 19.6 mph N/A   Overcast
2:15 PM 33.4 °F 28.1 °F 18.7 °F 55% 30.26 in 10.0 mi NNE 5.8 mph - N/A   Overcast
2:35 PM 34.0 °F 28.8 °F 17.4 °F 51% 30.25 in 10.0 mi NNW 5.8 mph - N/A   Overcast
2:55 PM 35.1 °F 31.0 °F 17.6 °F 49% 30.26 in 10.0 mi WNW 4.6 mph - N/A   Overcast
3:35 PM 36.1 °F 33.5 °F 19.4 °F 51% 30.26 in 10.0 mi ENE 3.5 mph - N/A   Overcast
3:55 PM 35.6 °F 30.7 °F 19.8 °F 53% 30.26 in 10.0 mi ESE 5.8 mph - N/A   Overcast
4:15 PM 35.1 °F 31.0 °F 19.0 °F 52% 30.26 in 10.0 mi NE 4.6 mph - N/A   Overcast
4:35 PM 34.2 °F - 18.5 °F 53% 30.25 in 10.0 mi Calm Calm - N/A   Overcast
4:55 PM 34.2 °F - 18.5 °F 53% 30.25 in 10.0 mi Calm Calm - N/A   Overcast
5:15 PM 33.4 °F - 19.9 °F 58% 30.25 in 10.0 mi Calm Calm - N/A   Overcast
5:35 PM 32.9 °F - 20.3 °F 60% 30.25 in 10.0 mi Calm Calm - N/A   Overcast
5:55 PM 32.9 °F - 20.1 °F 59% 30.25 in 10.0 mi Calm Calm - N/A   Overcast
6:15 PM 33.1 °F - 19.9 °F 59% 30.26 in 10.0 mi Calm Calm - N/A   Overcast
6:35 PM 32.5 °F 27.1 °F 18.9 °F 57% 30.26 in 10.0 mi North 5.8 mph - N/A   Overcast
6:55 PM 32.0 °F 27.5 °F 18.5 °F 58% 30.27 in 10.0 mi North 4.6 mph - N/A   Overcast
7:15 PM 30.2 °F - 18.3 °F 61% 30.27 in 10.0 mi Calm Calm - N/A   Overcast
7:35 PM 28.0 °F 22.8 °F 18.3 °F 67% 30.28 in 10.0 mi NNW 4.6 mph - N/A   Overcast
7:55 PM 29.1 °F - 18.7 °F 65% 30.28 in 10.0 mi Calm Calm - N/A   Scattered Clouds
8:15 PM 25.9 °F 19.2 °F 17.6 °F 71% 30.28 in 10.0 mi NW 5.8 mph - N/A   Mostly Cloudy
8:35 PM 25.5 °F 19.9 °F 17.2 °F 71% 30.28 in 10.0 mi NW 4.6 mph - N/A   Overcast
8:55 PM 24.6 °F 17.7 °F 17.2 °F 74% 30.29 in 10.0 mi NNW 5.8 mph - N/A   Overcast
9:15 PM 25.7 °F 18.0 °F 17.6 °F 71% 30.29 in 10.0 mi NNW 6.9 mph - N/A   Mostly Cloudy
9:35 PM 26.6 °F 22.6 °F 17.8 °F 69% 30.30 in 10.0 mi WNW 3.5 mph - N/A   Overcast
9:55 PM 26.1 °F 20.5 °F 18.3 °F 73% 30.31 in 10.0 mi South 4.6 mph - N/A   Overcast
10:15 PM 25.5 °F 19.9 °F 18.3 °F 74% 30.32 in 10.0 mi SSW 4.6 mph - N/A   Overcast
10:35 PM 25.2 °F 19.5 °F 18.1 °F 75% 30.32 in 10.0 mi SSW 4.6 mph - N/A   Overcast
10:55 PM 24.4 °F 18.6 °F 18.1 °F 77% 30.32 in 10.0 mi SW 4.6 mph - N/A   Overcast
11:15 PM 23.9 °F 18.0 °F 18.0 °F 78% 30.32 in 10.0 mi SW 4.6 mph - N/A   Overcast
11:35 PM 23.9 °F 18.0 °F 18.0 °F 78% 30.31 in 10.0 mi WSW 4.6 mph - N/A   Overcast
11:55 PM 23.4 °F 18.9 °F 17.8 °F 79% 30.31 in 10.0 mi WSW 3.5 mph - N/A   Overcast